This is the latest recevied weather packets stored in our database for station/object KQ4PPF. If no packets are shown the sender has not sent any weather packets the latest 10 day(s).
| Time | Temp. | Humidity | Pressure | Rain* | Wind** | Luminosity | Snow |
|---|---|---|---|---|---|---|---|
| 1777465777 | 17.22° C | 99% | 1013 hPa | 0 mm | - | 97 W/m² | - |
| 1777465473 | 17.22° C | 99% | 1013 hPa | 0 mm | - | 57 W/m² | - |
| 1777465171 | 16.67° C | 99% | 1012.8 hPa | 0 mm | - | 63 W/m² | - |
| 1777464867 | 16.67° C | 99% | 1013 hPa | 0 mm | - | 39 W/m² | - |
| 1777464562 | 16.67° C | 99% | 1013.1 hPa | 0 mm | - | 43 W/m² | - |
| 1777464259 | 16.11° C | 99% | 1013 hPa | 0 mm | - | 39 W/m² | - |
| 1777463954 | 16.11° C | 99% | 1013.1 hPa | 0 mm | - | 38 W/m² | - |
| 1777463650 | 16.11° C | 99% | 1012.9 hPa | 0 mm | - | 37 W/m² | - |
| 1777463344 | 16.11° C | 99% | 1013.1 hPa | 0 mm | - | 26 W/m² | - |
| 1777463041 | 16.11° C | 99% | 1013.4 hPa | 0 mm | - | 22 W/m² | - |
| 1777462736 | 15.56° C | 99% | 1013.6 hPa | 0 mm | - | 21 W/m² | - |
| 1777462432 | 15.56° C | 99% | 1013.5 hPa | 0 mm | - | 19 W/m² | - |
| 1777462129 | 15.56° C | 99% | 1013.5 hPa | 0 mm | - | 14 W/m² | - |
| 1777461825 | 15.56° C | 99% | 1013.6 hPa | 0 mm | - | 13 W/m² | - |
| 1777461521 | 15.56° C | 99% | 1013.8 hPa | 0 mm | - | 12 W/m² | - |
| 1777461218 | 15.56° C | 99% | 1013.2 hPa | 0 mm | - | 7 W/m² | - |
| 1777460913 | 15.56° C | 99% | 1013.5 hPa | 0 mm | - | 4 W/m² | - |
| 1777460609 | 15.56° C | 99% | 1013.4 hPa | 0 mm | - | 2 W/m² | - |
| 1777460305 | 15.56° C | 99% | 1013.3 hPa | 0 mm | - | 0 W/m² | - |
| 1777460002 | 15.56° C | 99% | 1012.9 hPa | 0 mm | - | 0 W/m² | - |
| 1777459698 | 15.56° C | 99% | 1012.9 hPa | 0 mm | - | 0 W/m² | - |
| 1777459395 | 15.56° C | 99% | 1012.9 hPa | 0 mm | - | 0 W/m² | - |
| 1777459093 | 15.56° C | 99% | 1012.6 hPa | 0 mm | - | 0 W/m² | - |
| 1777458790 | 15.56° C | 99% | 1012.5 hPa | 0 mm | - | 0 W/m² | - |
| 1777458486 | 15.56° C | 99% | 1012.4 hPa | 0 mm | - | 0 W/m² | - |
* Rain latest hour (hover to see other rain measurements)
** Current wind speed in m/s (hover to see current wind gust speed)